Regional Weather Roundup
Issued by NWS

Home | Current Version | Previous Version | Text Only | Print | Product List | Glossary On
Versions: 1 2 3 4 5 6 7 8 9 10 11 12 13 14 15 16 17 18 19 20 21 22 23 24 25 26 27 28 29 30 31 32 33 34 35 36 37 38 39 40 41 42 43 44 45 46 47 48 49 50
000
ASUS42 KKEY 131710
RWRKEY

FLORIDA REGIONAL WEATHER ROUNDUP FOR THE FLORIDA KEYS
NATIONAL WEATHER SERVICE KEY WEST FLORIDA
1200 PM EST SAT FEB 13 2016

...SOUTH FLORIDA AND THE KEYS...

CITY           SKY/WX    TMP DP  RH WIND       PRES   REMARKS
FORT MYERS     MOSUNNY   72  57  59 NW7       30.24F
SW REGIONAL AP MOSUNNY   72  57  59 VRB3      30.25F
NAPLES         SUNNY     71  60  68 NW8       30.25F
MIAMI          MOSUNNY   72  56  57 NW10G21   30.25F
WEST KENDALL   MOSUNNY   72  57  59 N18G26    30.25F
HOMESTEAD      SUNNY     73  55  53 NW18      30.23F
MARATHON       SUNNY     69  59  70 NW7       30.25F
BOCA CHICA NAS MOSUNNY   71  60  68 N12       30.27S
KEY WEST INTL  SUNNY     71  61  70 N12       30.27S

...INTERNATIONAL WEATHER...

CITY           SKY/WX    TMP DP  RH WIND       PRES   REMARKS
NASSAU BAHAMAS NOT AVBL
CANCUN MEXICO  MOSUNNY   77  61  57 NE9       30.23F
COZUMEL MEXICO MOSUNNY   75  63  64 E12G23    30.22S

ADJACENT COASTAL WATERS...

STATION/POSITION TIME  SKY/WX   TEMP    WIND        PRES    WAVE
                                AIR SEA DIR/SP/G            HT/PER
                 (UTC)          (F)     (DEG/KT/KT) (MB)    (FT/S)
PULASKI SHOAL LI NOT AVBL
SAND KEY         1650            66      30/ 12/ 13 1025.3F
SOMBRERO KEY     NOT AVBL
LONG KEY         1600            65 64  350/  5/  6 1025.4F
MOLASSES REEF    NOT AVBL
FOWEY ROCKS      NOT AVBL

$$



USA.gov is the U.S. government's official web portal to all federal, state and local government web resources and services.